Weather History for KPHL - March, 2013

Change the Weather History Date:

Saturday, March 2, 2013

  Actual Average Record
Temperature  
Mean Temperature 38 °F 39 °F  
Max Temperature 42 °F 48 °F 77 °F (1972)
Min Temperature 34 °F 31 °F 8 °F (1886)
Degree Days  
Heating Degree Days 27 26  
Month to date heating degree days 53 52  
Since 1 July heating degree days 3260 3534  
Cooling Degree Days 0 0  
Month to date cooling degree days 0 0  
Year to date cooling degree days 0 0  
Moisture  
Dew Point 21 °F    
Average Humidity 49    
Maximum Humidity 59    
Minimum Humidity 39    
Precipitation  
Precipitation T in 0.11 in 1.22 in (2007)
Month to date precipitation T 0.21  
Year to date precipitation 5.46 5.89  
Snow  
Snow T in 0.20 in 5.60 in (2009)
Month to date snowfall T 0.4  
Since 1 July snowfall 7.0 19.4  
Snow Depth 0.00 in    
Sea Level Pressure  
Sea Level Pressure 29.81 in    
Wind  
Wind Speed 11 mph (NW)    
Max Wind Speed 20 mph    
Max Gust Speed 25 mph    
Visibility 10 miles    
Events      
T = Trace of Precipitation, MM = Missing Value Source: NWS Daily Summary

Daily Weather History Graph

Daily Weather History Graph

Search for Another Location

Airport or City:

Trip Planner

Search our weather history database for the weather conditions in past years. The results will help you decide how hot, cold, wet, or windy it might be!

Date:

Astronomy

Mar. 02, 2013 Rise Set
Actual Time 6:32 AM EST 5:54 PM EST
Civil Twilight 6:05 AM EST 6:21 PM EST
Nautical Twilight 5:33 AM EST 6:52 PM EST
Astronomical Twilight 5:02 AM EST 7:24 PM EST
Moon 11:30 PM EST (3/2) 8:59 AM EST (3/2)
Length of Visible Light 12h 16m
Length of Day
11h 21m
Waning Gibbous, 74% of the Moon is Illuminated
Mar 2
Waning Gibbous
Mar 4
Last Quarter
Mar 11
New
Mar 19
First Quarter
Mar 27
Full

Hourly Weather History & Observations

Time (EST) Temp. Windchill Dew Point Humidity Pressure Visibility Wind Dir Wind Speed Gust Speed Precip Events Conditions
12:54 AM 37.0 °F 31.0 °F 24.1 °F 59% 29.83 in 10.0 mi NW 8.1 mph - N/A   Mostly Cloudy
1:54 AM 35.1 °F - 23.0 °F 61% 29.83 in 10.0 mi Calm Calm - N/A   Scattered Clouds
2:54 AM 35.1 °F - 23.0 °F 61% 29.83 in 10.0 mi Calm Calm - N/A   Mostly Cloudy
3:54 AM 35.1 °F 26.4 °F 21.9 °F 59% 29.83 in 10.0 mi NNW 12.7 mph - N/A   Overcast
4:54 AM 35.1 °F 26.4 °F 21.0 °F 57% 29.83 in 10.0 mi NNW 12.7 mph - N/A   Overcast
5:54 AM 34.0 °F 26.6 °F 19.9 °F 56% 29.84 in 10.0 mi NNW 9.2 mph - N/A   Overcast
6:54 AM 34.0 °F 26.0 °F 19.9 °F 56% 29.84 in 10.0 mi NW 10.4 mph - N/A   Mostly Cloudy
7:54 AM 35.1 °F 25.5 °F 19.9 °F 54% 29.84 in 10.0 mi NW 15.0 mph 21.9 mph N/A   Overcast
8:54 AM 36.0 °F 28.0 °F 19.9 °F 52% 29.84 in 10.0 mi NW 11.5 mph 17.3 mph N/A   Overcast
9:54 AM 37.0 °F 28.1 °F 19.9 °F 50% 29.83 in 10.0 mi NW 15.0 mph - N/A   Overcast
10:54 AM 37.9 °F 31.5 °F 19.9 °F 48% 29.83 in 10.0 mi WNW 9.2 mph - N/A   Overcast
11:54 AM 37.9 °F 30.9 °F 19.9 °F 48% 29.82 in 10.0 mi NW 10.4 mph - N/A   Overcast
12:54 PM 39.0 °F 31.8 °F 19.9 °F 46% 29.79 in 10.0 mi West 11.5 mph - N/A   Overcast
1:54 PM 41.0 °F 34.7 °F 19.9 °F 43% 29.76 in 10.0 mi NNW 10.4 mph - N/A   Overcast
2:54 PM 42.1 °F 34.9 °F 19.0 °F 40% 29.75 in 10.0 mi WNW 13.8 mph - N/A   Mostly Cloudy
3:54 PM 41.0 °F 33.5 °F 21.0 °F 45% 29.75 in 10.0 mi NW 13.8 mph - 0.00 in   Mostly Cloudy
4:54 PM 39.0 °F 29.9 °F 21.0 °F 49% 29.76 in 10.0 mi NW 17.3 mph - N/A   Mostly Cloudy
5:54 PM 37.9 °F 29.2 °F 21.0 °F 51% 29.78 in 10.0 mi NW 15.0 mph - N/A   Mostly Cloudy
6:54 PM 37.9 °F 30.5 °F 21.0 °F 51% 29.80 in 10.0 mi NNW 11.5 mph - N/A   Overcast
7:54 PM 37.0 °F 28.9 °F 19.9 °F 50% 29.80 in 10.0 mi NNW 12.7 mph - N/A   Overcast
8:54 PM 36.0 °F 29.0 °F 19.9 °F 52% 29.80 in 10.0 mi NNW 9.2 mph - N/A   Overcast
9:54 PM 36.0 °F 26.7 °F 19.0 °F 50% 29.80 in 10.0 mi NNW 15.0 mph - N/A   Overcast
10:54 PM 35.1 °F 27.9 °F 19.9 °F 54% 29.80 in 10.0 mi NNW 9.2 mph - N/A   Overcast
11:54 PM 34.0 °F 26.6 °F 19.0 °F 54% 29.80 in 10.0 mi NNW 9.2 mph 20.7 mph N/A   Overcast